TimeCST,TemperatureF,Dew PointF,Humidity,Sea Level PressureIn,VisibilityMPH,Wind Direction,Wind SpeedMPH,Gust SpeedMPH,PrecipitationIn,Events,Conditions,WindDirDegrees,DateUTC
12:15 AM,62.6,62.6,100,29.99,2.0,ESE,4.6,-,N/A,,Clear,120,2012-12-09 06:15:00
12:36 AM,62.6,62.6,100,29.99,3.0,ESE,4.6,-,N/A,,Clear,120,2012-12-09 06:36:00
12:51 AM,63.0,63.0,100,29.99,4.0,Calm,Calm,-,N/A,,Clear,0,2012-12-09 06:51:00
12:59 AM,62.6,62.6,100,29.99,1.8,Calm,Calm,-,N/A,,Clear,0,2012-12-09 06:59:00
1:16 AM,62.6,62.6,100,29.99,2.0,ESE,3.5,-,N/A,,Clear,110,2012-12-09 07:16:00
1:23 AM,62.6,62.6,100,29.99,1.0,ESE,3.5,-,N/A,,Clear,110,2012-12-09 07:23:00
1:36 AM,62.6,62.6,100,29.98,3.0,East,3.5,-,N/A,,Scattered Clouds,100,2012-12-09 07:36:00
1:51 AM,64.0,64.0,100,29.98,5.0,East,3.5,-,N/A,,Mostly Cloudy,100,2012-12-09 07:51:00
2:19 AM,64.4,64.4,100,29.98,5.0,East,3.5,-,N/A,,Scattered Clouds,100,2012-12-09 08:19:00
2:51 AM,63.0,63.0,100,29.98,5.0,East,3.5,-,N/A,,Clear,100,2012-12-09 08:51:00
3:51 AM,63.0,63.0,100,29.98,8.0,East,3.5,-,N/A,,Clear,90,2012-12-09 09:51:00
4:51 AM,64.0,64.0,100,29.99,10.0,East,4.6,-,N/A,,Mostly Cloudy,100,2012-12-09 10:51:00
5:51 AM,64.0,64.0,100,30.00,10.0,ESE,5.8,-,N/A,,Mostly Cloudy,110,2012-12-09 11:51:00
6:21 AM,64.4,64.4,100,30.01,9.0,ESE,5.8,-,N/A,,Mostly Cloudy,110,2012-12-09 12:21:00
6:51 AM,64.9,64.9,100,30.01,7.0,ESE,4.6,-,N/A,,Mostly Cloudy,110,2012-12-09 12:51:00
7:51 AM,68.0,68.0,100,30.03,7.0,ESE,3.5,-,N/A,,Mostly Cloudy,120,2012-12-09 13:51:00
8:51 AM,72.0,72.0,100,30.04,10.0,SSE,8.1,-,N/A,,Overcast,150,2012-12-09 14:51:00
9:51 AM,73.0,72.0,96,30.04,10.0,SSE,10.4,-,N/A,,Overcast,160,2012-12-09 15:51:00
10:51 AM,73.9,72.0,93,30.03,10.0,SSE,9.2,-,N/A,,Overcast,160,2012-12-09 16:51:00
11:51 AM,75.9,72.0,87,30.01,10.0,SSE,10.4,-,N/A,,Mostly Cloudy,160,2012-12-09 17:51:00
12:51 PM,75.9,73.0,91,29.98,10.0,South,10.4,-,N/A,,Overcast,170,2012-12-09 18:51:00
1:51 PM,75.0,72.0,90,29.97,10.0,South,11.5,-,N/A,,Overcast,180,2012-12-09 19:51:00
2:51 PM,75.0,73.0,94,29.96,10.0,South,11.5,-,N/A,,Overcast,180,2012-12-09 20:51:00
3:51 PM,73.9,72.0,93,29.96,10.0,South,10.4,-,N/A,,Overcast,180,2012-12-09 21:51:00
4:51 PM,72.0,72.0,100,29.96,10.0,South,8.1,-,N/A,,Partly Cloudy,170,2012-12-09 22:51:00
5:51 PM,72.0,72.0,100,29.96,10.0,SSE,8.1,-,N/A,,Partly Cloudy,160,2012-12-09 23:51:00
6:51 PM,72.0,72.0,100,29.97,10.0,South,9.2,-,N/A,,Overcast,170,2012-12-10 00:51:00
7:51 PM,72.0,71.1,97,29.97,10.0,South,10.4,-,N/A,,Overcast,170,2012-12-10 01:51:00
8:51 PM,71.1,71.1,100,29.96,10.0,SSE,10.4,-,N/A,,Clear,160,2012-12-10 02:51:00
9:51 PM,71.1,71.1,100,29.95,10.0,SSE,11.5,-,N/A,,Clear,160,2012-12-10 03:51:00
10:51 PM,71.1,71.1,100,29.95,10.0,SSE,10.4,-,N/A,,Clear,160,2012-12-10 04:51:00
11:51 PM,71.1,71.1,100,29.94,10.0,South,10.4,-,N/A,,Clear,170,2012-12-10 05:51:00